Regional Weather Roundup
Issued by NWS

Home | Current Version | Previous Version | Text Only | Print | Product List | Glossary On
Versions: 1 2 3 4 5 6 7 8 9 10 11 12 13 14 15 16 17 18 19 20 21 22 23 24 25 26 27 28 29 30 31 32 33 34 35 36 37 38 39 40 41 42 43 44 45 46 47 48 49 50
000
ASUS43 KOAX 302002
RWRNE

WEATHER ROUNDUP FOR NEBRASKA
NATIONAL WEATHER SERVICE OMAHA NE
300 PM CDT THU OCT 30 2014

NOTES: SATELLITE DATA IS BEING USED TO AUGMENT CLOUD COVER ABOVE
       12000 FEET.
       "FAIR" INDICATES FEW OR NO CLOUDS BELOW 12,000 FEET WITH NO
       SIGNIFICANT WEATHER AND/OR OBSTRUCTIONS TO VISIBILITY.

  * THESE STATIONS DO NOT REPORT WEATHER SUCH AS RAIN...SNOW OR FOG.

NEZ001>004-019>022-054>056-302100-
NEBRASKA PANHANDLE

CITY           SKY/WX    TMP DP  RH WIND       PRES   REMARKS
SCOTTSBLUFF    MOSUNNY   63  32  31 VRB7      30.30F
ALLIANCE       SUNNY     60  32  34 N15       30.29F
CHADRON        MOSUNNY   60  33  36 NW13      30.29F
KIMBALL        SUNNY     59  28  30 N5        30.31F
SIDNEY         SUNNY     61  31  32 N20       30.32F
$$

NEZ057>060-069>072-079>082-302100-
SOUTHWEST NEBRASKA

CITY           SKY/WX    TMP DP  RH WIND       PRES   REMARKS
NORTH PLATTE   SUNNY     64  31  28 N23G31    30.24F
IMPERIAL       SUNNY     64  30  27 N21       30.27F
LEXINGTON      SUNNY     65  32  29 N24G31    30.22S
MCCOOK         SUNNY     68  29  23 N20       30.23F
OGALLALA       SUNNY     66  33  28 N16       30.27S
$$

NEZ005>010-023>029-035>040-094-302100-
NORTH CENTRAL NEBRASKA

CITY           SKY/WX    TMP DP  RH WIND       PRES   REMARKS
VALENTINE      SUNNY     54  33  45 N20G25    30.28S
AINSWORTH      SUNNY     53  34  48 N23G30    30.27R
BROKEN BOW     SUNNY     62  34  35 N24G35    30.21S
O`NEILL        SUNNY     55  37  49 N20G28    30.22R
ORD            SUNNY     60  34  37 N22G36    30.19S
THEDFORD       SUNNY     60  33  36 N24G32    30.26S
$$

NEZ041-046>049-061>064-073>077-083>087-302100-
SOUTH CENTRAL NEBRASKA

CITY           SKY/WX    TMP DP  RH WIND       PRES   REMARKS
GRAND ISLAND   SUNNY     63  35  35 N23       30.17S
AURORA         SUNNY     62  31  31 N23G32    30.16S
HASTINGS       SUNNY     63  32  31 N25G32    30.17S
HEBRON         SUNNY     66  31  27 NW16G26   30.12S
HOLDREGE       SUNNY     63  30  28 N20G32    30.20S
KEARNEY *      SUNNY     64  30  27 NW23G32   30.20S
YORK           SUNNY     63  37  39 N21G29    30.15R
$$

NEZ011>018-030>034-042>045-302100-
NORTHEAST NEBRASKA

CITY           SKY/WX    TMP DP  RH WIND       PRES   REMARKS
NORFOLK        SUNNY     58  38  47 NW18G31   30.15R
ALBION         SUNNY     58  35  41 N18G31    30.17R
BLAIR          MOSUNNY   62  40  45 NW23G29   30.08S
COLUMBUS *       N/A    N/A N/A N/A MISG        N/A
FREMONT        SUNNY     61  40  45 NW21G31   30.11S
TEKAMAH        SUNNY     62  40  44 NW24G35   30.09S
WAYNE          MOSUNNY   56  39  51 N18G26    30.15R
$$

NEZ050>053-065>068-078-088>093-302100-
SOUTHEAST NEBRASKA

CITY           SKY/WX    TMP DP  RH WIND       PRES   REMARKS
LINCOLN        SUNNY     64  39  39 N24G32    30.11S
OMAHA EPPLEY   MOSUNNY   62  41  46 N23G31    30.07S
BEATRICE       SUNNY     63  40  42 N17G32    30.10S
FALLS CITY     SUNNY     66  40  38 NW22G30   30.05R
NEBRASKA CITY  SUNNY     63  35  35 NW17G24   30.07R
PLATTSMOUTH    MOSUNNY   63  38  40 NW17G24   30.07S
$$

NEZ044-045-051>053-067-302100-
OMAHA AREA

CITY           SKY/WX    TMP DP  RH WIND       PRES   REMARKS
OMAHA EPPLEY   MOSUNNY   62  41  46 N23G31    30.07S
BLAIR          MOSUNNY   62  40  45 NW23G29   30.08S
FREMONT        SUNNY     61  40  45 NW21G31   30.11S
MILLARD        MOSUNNY   62  42  47 NW21G28   30.08S
PLATTSMOUTH    MOSUNNY   63  38  40 NW17G24   30.07S
WAHOO          FAIR      62  37  38 N18G30    30.10S
$$



USA.gov is the U.S. government's official web portal to all federal, state and local government web resources and services.